Wetterdaten: Donnerstag, 01.11.2012
Datum Zeit Temp. Auen Feucht Auen Luftdruck Regen Richtung Richtung Windben
01.11.2012 00:00 6,1 C 87 % 996,4 hPa 0,0 mm S-SO 149 8,0 km/h (2 Bft)
01.11.2012 00:05 5,9 C 88 % 996,2 hPa 0,0 mm O 94 8,0 km/h (2 Bft)
01.11.2012 00:10 6,0 C 87 % 996,0 hPa 0,0 mm O 90 11,3 km/h (2 Bft)
01.11.2012 00:15 5,9 C 88 % 996,0 hPa 0,0 mm O-NO 67 8,0 km/h (2 Bft)
01.11.2012 00:20 5,8 C 88 % 996,0 hPa 0,0 mm O-SO 105 9,7 km/h (2 Bft)
01.11.2012 00:25 5,6 C 88 % 995,9 hPa 0,0 mm O 87 8,0 km/h (2 Bft)
01.11.2012 00:30 5,3 C 89 % 995,9 hPa 0,0 mm O-SO 107 8,0 km/h (2 Bft)
01.11.2012 00:35 5,0 C 90 % 995,8 hPa 0,0 mm O-SO 118 11,3 km/h (2 Bft)
01.11.2012 00:40 5,0 C 91 % 995,7 hPa 0,0 mm S-SO 159 8,0 km/h (2 Bft)
01.11.2012 00:45 5,0 C 91 % 995,7 hPa 0,0 mm O 96 9,7 km/h (2 Bft)
01.11.2012 00:50 4,9 C 91 % 995,7 hPa 0,0 mm SO 140 9,7 km/h (2 Bft)
01.11.2012 00:55 4,9 C 91 % 995,7 hPa 0,0 mm O-SO 114 8,0 km/h (2 Bft)
01.11.2012 01:00 5,0 C 92 % 995,6 hPa 0,0 mm O-SO 117 11,3 km/h (2 Bft)
01.11.2012 01:05 5,0 C 91 % 995,4 hPa 0,0 mm O 82 12,9 km/h (3 Bft)
01.11.2012 01:10 4,8 C 92 % 995,3 hPa 0,0 mm O-SO 114 12,9 km/h (3 Bft)
01.11.2012 01:15 4,8 C 93 % 995,3 hPa 0,0 mm O 95 14,5 km/h (3 Bft)
01.11.2012 01:20 4,8 C 93 % 995,3 hPa 0,0 mm O-SO 114 12,9 km/h (3 Bft)
01.11.2012 01:25 4,7 C 93 % 995,2 hPa 0,0 mm O 95 14,5 km/h (3 Bft)
01.11.2012 01:30 4,7 C 93 % 995,3 hPa 0,0 mm O 86 11,3 km/h (2 Bft)
01.11.2012 01:35 4,8 C 93 % 995,2 hPa 0,0 mm SO 135 8,0 km/h (2 Bft)
01.11.2012 01:40 4,9 C 92 % 995,1 hPa 0,0 mm O-SO 110 9,7 km/h (2 Bft)
01.11.2012 01:45 4,9 C 92 % 995,0 hPa 0,0 mm SO 134 9,7 km/h (2 Bft)
01.11.2012 01:50 4,8 C 92 % 994,8 hPa 0,0 mm O-SO 116 8,0 km/h (2 Bft)
01.11.2012 01:55 4,8 C 92 % 994,5 hPa 0,0 mm SO 137 4,8 km/h (1 Bft)
01.11.2012 02:00 4,7 C 92 % 994,4 hPa 0,0 mm N-NO 15 6,4 km/h (2 Bft)
01.11.2012 02:05 4,7 C 92 % 994,2 hPa 0,0 mm N-NO 15 1,6 km/h (1 Bft)
01.11.2012 02:10 4,7 C 92 % 994,2 hPa 0,0 mm SO 146 3,2 km/h (1 Bft)
01.11.2012 02:15 4,6 C 92 % 994,3 hPa 0,0 mm O-SO 109 6,4 km/h (2 Bft)
01.11.2012 02:20 4,3 C 92 % 994,1 hPa 0,0 mm SO 143 8,0 km/h (2 Bft)
01.11.2012 02:25 4,5 C 93 % 994,0 hPa 0,0 mm O-SO 123 8,0 km/h (2 Bft)
01.11.2012 02:30 4,8 C 93 % 994,0 hPa 0,0 mm SO 134 8,0 km/h (2 Bft)
01.11.2012 02:35 5,1 C 93 % 994,1 hPa 0,0 mm SO 130 9,7 km/h (2 Bft)
01.11.2012 02:40 5,3 C 92 % 994,1 hPa 0,0 mm SO 138 9,7 km/h (2 Bft)
01.11.2012 02:45 5,4 C 92 % 993,9 hPa 0,0 mm O-SO 113 11,3 km/h (2 Bft)
01.11.2012 02:50 5,3 C 92 % 993,7 hPa 0,0 mm O-NO 74 6,4 km/h (2 Bft)
01.11.2012 02:55 5,3 C 92 % 993,5 hPa 0,0 mm O 80 4,8 km/h (1 Bft)
01.11.2012 03:00 5,2 C 92 % 993,2 hPa 0,0 mm O-SO 102 4,8 km/h (1 Bft)
01.11.2012 03:05 5,1 C 92 % 993,2 hPa 0,0 mm O-SO 116 4,8 km/h (1 Bft)
01.11.2012 03:10 4,9 C 92 % 993,1 hPa 0,0 mm O-NO 65 8,0 km/h (2 Bft)
01.11.2012 03:15 4,8 C 92 % 993,2 hPa 0,0 mm O-SO 107 6,4 km/h (2 Bft)
01.11.2012 03:20 4,8 C 93 % 993,0 hPa 0,0 mm O 90 8,0 km/h (2 Bft)
01.11.2012 03:25 4,8 C 93 % 993,1 hPa 0,0 mm O-SO 122 4,8 km/h (1 Bft)
01.11.2012 03:30 4,8 C 93 % 992,9 hPa 0,0 mm O 92 11,3 km/h (2 Bft)
01.11.2012 03:35 4,8 C 93 % 993,0 hPa 0,0 mm SO 140 6,4 km/h (2 Bft)
01.11.2012 03:40 4,8 C 92 % 992,7 hPa 0,0 mm SO 138 8,0 km/h (2 Bft)
01.11.2012 03:45 4,8 C 92 % 992,7 hPa 0,0 mm SO 145 9,7 km/h (2 Bft)
01.11.2012 03:50 4,6 C 92 % 992,7 hPa 0,0 mm SO 128 6,4 km/h (2 Bft)
01.11.2012 03:55 4,4 C 92 % 992,7 hPa 0,0 mm SO 126 8,0 km/h (2 Bft)
01.11.2012 04:00 4,4 C 93 % 992,5 hPa 0,0 mm O 88 8,0 km/h (2 Bft)
01.11.2012 04:05 4,2 C 92 % 992,4 hPa 0,0 mm O 88 8,0 km/h (2 Bft)
01.11.2012 04:10 4,2 C 93 % 992,3 hPa 0,0 mm O-SO 122 6,4 km/h (2 Bft)
01.11.2012 04:15 4,1 C 93 % 992,3 hPa 0,0 mm O-SO 114 8,0 km/h (2 Bft)
01.11.2012 04:20 3,9 C 93 % 992,2 hPa 0,0 mm O-NO 70 12,9 km/h (3 Bft)
01.11.2012 04:25 4,0 C 94 % 992,2 hPa 0,0 mm O-SO 107 11,3 km/h (2 Bft)
01.11.2012 04:30 4,0 C 94 % 992,3 hPa 0,0 mm O-NO 69 9,7 km/h (2 Bft)
01.11.2012 04:35 3,8 C 93 % 992,2 hPa 0,0 mm O 87 4,8 km/h (1 Bft)
01.11.2012 04:40 3,9 C 94 % 992,1 hPa 0,0 mm O 84 11,3 km/h (2 Bft)
01.11.2012 04:45 4,2 C 94 % 992,1 hPa 0,0 mm SO 128 11,3 km/h (2 Bft)
01.11.2012 04:50 4,5 C 94 % 992,1 hPa 0,0 mm SO 134 12,9 km/h (3 Bft)
01.11.2012 04:55 4,6 C 94 % 991,8 hPa 0,0 mm O 83 11,3 km/h (2 Bft)
01.11.2012 05:00 4,6 C 94 % 991,7 hPa 0,0 mm O 94 12,9 km/h (3 Bft)
01.11.2012 05:05 4,5 C 93 % 991,6 hPa 0,0 mm O-NO 77 12,9 km/h (3 Bft)
01.11.2012 05:10 4,3 C 94 % 991,4 hPa 0,0 mm O 98 12,9 km/h (3 Bft)
01.11.2012 05:15 4,4 C 94 % 991,3 hPa 0,0 mm O 87 12,9 km/h (3 Bft)
01.11.2012 05:20 4,5 C 94 % 991,4 hPa 0,0 mm O 96 14,5 km/h (3 Bft)
01.11.2012 05:25 4,6 C 94 % 991,5 hPa 0,0 mm O-SO 119 12,9 km/h (3 Bft)
01.11.2012 05:30 4,7 C 94 % 991,6 hPa 0,0 mm O-SO 105 14,5 km/h (3 Bft)
01.11.2012 05:35 4,8 C 93 % 991,6 hPa 0,0 mm O 88 16,1 km/h (3 Bft)
01.11.2012 05:40 4,8 C 93 % 991,6 hPa 0,0 mm NO 46 14,5 km/h (3 Bft)
01.11.2012 05:45 4,8 C 93 % 991,7 hPa 0,0 mm O 81 16,1 km/h (3 Bft)
01.11.2012 05:50 4,7 C 93 % 991,6 hPa 0,0 mm O 82 17,7 km/h (3 Bft)
01.11.2012 05:55 4,7 C 93 % 991,3 hPa 0,0 mm O-SO 105 16,1 km/h (3 Bft)
01.11.2012 06:00 4,7 C 93 % 991,2 hPa 0,0 mm O-NO 68 14,5 km/h (3 Bft)
01.11.2012 06:05 4,6 C 93 % 991,4 hPa 0,0 mm NO 39 12,9 km/h (3 Bft)
01.11.2012 06:10 4,6 C 93 % 991,5 hPa 0,0 mm NO 53 12,9 km/h (3 Bft)
01.11.2012 06:15 4,6 C 93 % 991,4 hPa 0,0 mm N-NO 12 14,5 km/h (3 Bft)
01.11.2012 06:20 4,6 C 93 % 991,2 hPa 0,0 mm O-SO 104 11,3 km/h (2 Bft)
01.11.2012 06:25 4,6 C 93 % 991,2 hPa 0,0 mm SO 128 9,7 km/h (2 Bft)
01.11.2012 06:30 4,5 C 93 % 991,0 hPa 0,0 mm O-NO 74 8,0 km/h (2 Bft)
01.11.2012 06:35 4,4 C 93 % 991,0 hPa 0,0 mm NO 50 11,3 km/h (2 Bft)
01.11.2012 06:40 4,5 C 93 % 991,0 hPa 0,0 mm O-SO 108 6,4 km/h (2 Bft)
01.11.2012 06:45 4,6 C 93 % 991,0 hPa 0,0 mm S-SO 165 8,0 km/h (2 Bft)
01.11.2012 06:50 4,7 C 93 % 991,0 hPa 0,0 mm S 175 6,4 km/h (2 Bft)
01.11.2012 06:55 4,7 C 93 % 991,2 hPa 0,0 mm W 281 6,4 km/h (2 Bft)
01.11.2012 07:00 4,7 C 92 % 991,5 hPa 0,0 mm W 265 4,8 km/h (1 Bft)
01.11.2012 07:05 4,6 C 92 % 991,5 hPa 0,0 mm W 266 8,0 km/h (2 Bft)
01.11.2012 07:10 4,5 C 92 % 991,4 hPa 0,0 mm W-SW 258 8,0 km/h (2 Bft)
01.11.2012 07:15 4,5 C 93 % 991,4 hPa 0,0 mm W-SW 258 3,2 km/h (1 Bft)
01.11.2012 07:20 4,4 C 93 % 991,8 hPa 0,0 mm W-NW 288 4,8 km/h (1 Bft)
01.11.2012 07:25 4,4 C 93 % 991,9 hPa 0,0 mm W 270 6,4 km/h (2 Bft)
01.11.2012 07:30 4,4 C 93 % 991,8 hPa 0,0 mm W 266 4,8 km/h (1 Bft)
01.11.2012 07:35 4,4 C 93 % 991,7 hPa 0,0 mm W 269 8,0 km/h (2 Bft)
01.11.2012 07:40 4,4 C 93 % 991,9 hPa 0,0 mm W 273 8,0 km/h (2 Bft)
01.11.2012 07:45 4,6 C 93 % 991,9 hPa 0,0 mm W 259 9,7 km/h (2 Bft)
01.11.2012 07:50 4,6 C 93 % 992,0 hPa 0,0 mm W 272 8,0 km/h (2 Bft)
01.11.2012 07:55 4,7 C 93 % 992,1 hPa 0,0 mm W 273 6,4 km/h (2 Bft)
01.11.2012 08:00 4,8 C 93 % 992,2 hPa 0,0 mm W 259 4,8 km/h (1 Bft)
01.11.2012 08:05 4,9 C 92 % 992,4 hPa 0,0 mm W 267 8,0 km/h (2 Bft)
01.11.2012 08:10 5,1 C 91 % 992,4 hPa 0,0 mm W-SW 255 9,7 km/h (2 Bft)
01.11.2012 08:15 5,2 C 90 % 992,5 hPa 0,0 mm W-NW 282 9,7 km/h (2 Bft)
01.11.2012 08:20 5,4 C 89 % 992,5 hPa 0,0 mm W 273 11,3 km/h (2 Bft)
01.11.2012 08:25 5,6 C 88 % 992,5 hPa 0,0 mm W 262 11,3 km/h (2 Bft)
01.11.2012 08:30 5,8 C 88 % 992,6 hPa 0,0 mm W 269 11,3 km/h (2 Bft)
01.11.2012 08:35 5,9 C 87 % 992,7 hPa 0,0 mm W-NW 302 12,9 km/h (3 Bft)
01.11.2012 08:40 6,1 C 87 % 992,6 hPa 0,0 mm W-SW 249 9,7 km/h (2 Bft)
01.11.2012 08:45 6,4 C 87 % 992,7 hPa 0,0 mm W-NW 284 8,0 km/h (2 Bft)
01.11.2012 08:50 6,8 C 87 % 992,8 hPa 0,0 mm W-NW 298 8,0 km/h (2 Bft)
01.11.2012 08:55 7,4 C 86 % 992,7 hPa 0,0 mm W 263 9,7 km/h (2 Bft)
01.11.2012 09:00 7,8 C 83 % 992,6 hPa 0,0 mm W 273 8,0 km/h (2 Bft)
01.11.2012 09:05 8,3 C 81 % 992,7 hPa 0,0 mm W-SW 240 12,9 km/h (3 Bft)
01.11.2012 09:10 8,7 C 80 % 992,8 hPa 0,0 mm W 277 9,7 km/h (2 Bft)
01.11.2012 09:15 9,0 C 78 % 992,9 hPa 0,0 mm W 271 12,9 km/h (3 Bft)
01.11.2012 09:20 9,2 C 76 % 992,9 hPa 0,0 mm W-NW 284 14,5 km/h (3 Bft)
01.11.2012 09:25 9,3 C 76 % 992,9 hPa 0,0 mm W-NW 284 12,9 km/h (3 Bft)
01.11.2012 09:30 9,4 C 76 % 992,9 hPa 0,0 mm W 269 9,7 km/h (2 Bft)
01.11.2012 09:35 9,7 C 75 % 992,9 hPa 0,0 mm W-NW 296 8,0 km/h (2 Bft)
01.11.2012 09:40 9,9 C 74 % 992,9 hPa 0,0 mm W-NW 283 11,3 km/h (2 Bft)
01.11.2012 09:45 10,2 C 74 % 992,9 hPa 0,0 mm W 275 9,7 km/h (2 Bft)
01.11.2012 09:50 10,2 C 71 % 993,0 hPa 0,0 mm W-SW 243 14,5 km/h (3 Bft)
01.11.2012 09:55 10,2 C 71 % 993,0 hPa 0,0 mm W-SW 258 9,7 km/h (2 Bft)
01.11.2012 10:00 10,2 C 71 % 993,1 hPa 0,0 mm W-SW 256 12,9 km/h (3 Bft)
01.11.2012 10:05 10,1 C 70 % 993,2 hPa 0,0 mm W 273 16,1 km/h (3 Bft)
01.11.2012 10:10 9,9 C 71 % 993,2 hPa 0,0 mm W 259 19,3 km/h (3 Bft)
01.11.2012 10:15 9,8 C 72 % 993,2 hPa 0,0 mm W 264 14,5 km/h (3 Bft)
01.11.2012 10:20 9,8 C 72 % 993,3 hPa 0,0 mm W 275 16,1 km/h (3 Bft)
01.11.2012 10:25 9,9 C 72 % 993,2 hPa 0,0 mm W 263 14,5 km/h (3 Bft)
01.11.2012 10:30 10,0 C 72 % 993,1 hPa 0,0 mm W 263 11,3 km/h (2 Bft)
01.11.2012 10:35 10,1 C 71 % 993,2 hPa 0,0 mm W-NW 283 17,7 km/h (3 Bft)
01.11.2012 10:40 10,2 C 71 % 993,1 hPa 0,0 mm W-SW 256 14,5 km/h (3 Bft)
01.11.2012 10:45 10,1 C 69 % 993,1 hPa 0,0 mm W 271 19,3 km/h (3 Bft)
01.11.2012 10:50 10,0 C 70 % 993,2 hPa 0,0 mm W 261 16,1 km/h (3 Bft)
01.11.2012 10:55 9,9 C 71 % 993,2 hPa 0,0 mm W 278 19,3 km/h (3 Bft)
01.11.2012 11:00 9,8 C 71 % 993,1 hPa 0,0 mm W 280 16,1 km/h (3 Bft)
01.11.2012 11:05 9,7 C 74 % 993,2 hPa 0,0 mm W 273 12,9 km/h (3 Bft)
01.11.2012 11:10 9,8 C 74 % 993,2 hPa 0,0 mm W-SW 251 14,5 km/h (3 Bft)
01.11.2012 11:15 10,0 C 73 % 993,2 hPa 0,0 mm W 263 12,9 km/h (3 Bft)
01.11.2012 11:20 10,1 C 73 % 993,3 hPa 0,0 mm W 266 12,9 km/h (3 Bft)
01.11.2012 11:25 10,3 C 72 % 993,3 hPa 0,0 mm W 261 12,9 km/h (3 Bft)
01.11.2012 11:30 10,6 C 73 % 993,3 hPa 0,0 mm W 277 12,9 km/h (3 Bft)
01.11.2012 11:35 10,8 C 70 % 993,2 hPa 0,0 mm W 263 16,1 km/h (3 Bft)
01.11.2012 11:40 11,1 C 71 % 993,3 hPa 0,0 mm W-SW 244 16,1 km/h (3 Bft)
01.11.2012 11:45 11,4 C 69 % 993,2 hPa 0,0 mm W 260 20,9 km/h (4 Bft)
01.11.2012 11:50 11,6 C 69 % 993,2 hPa 0,0 mm W-SW 244 12,9 km/h (3 Bft)
01.11.2012 11:55 11,8 C 67 % 993,2 hPa 0,0 mm W 278 14,5 km/h (3 Bft)
01.11.2012 12:00 11,9 C 67 % 993,3 hPa 0,0 mm W 279 14,5 km/h (3 Bft)
01.11.2012 12:05 12,0 C 66 % 993,3 hPa 0,0 mm W 263 14,5 km/h (3 Bft)
01.11.2012 12:10 12,1 C 67 % 993,3 hPa 0,0 mm W 278 14,5 km/h (3 Bft)
01.11.2012 12:15 12,1 C 66 % 993,2 hPa 0,0 mm W-SW 257 19,3 km/h (3 Bft)
01.11.2012 12:20 12,1 C 67 % 993,3 hPa 0,0 mm W 271 8,0 km/h (2 Bft)
01.11.2012 12:25 11,9 C 67 % 993,3 hPa 0,0 mm W-SW 252 11,3 km/h (2 Bft)
01.11.2012 12:30 11,8 C 69 % 993,2 hPa 0,0 mm W 269 14,5 km/h (3 Bft)
01.11.2012 12:35 11,6 C 69 % 993,2 hPa 0,0 mm W-SW 239 14,5 km/h (3 Bft)
01.11.2012 12:40 11,7 C 70 % 993,3 hPa 0,0 mm W-SW 254 12,9 km/h (3 Bft)
01.11.2012 12:45 11,7 C 68 % 993,4 hPa 0,0 mm W-NW 288 16,1 km/h (3 Bft)
01.11.2012 12:50 11,7 C 69 % 993,4 hPa 0,0 mm W-NW 288 12,9 km/h (3 Bft)
01.11.2012 12:55 11,6 C 69 % 993,4 hPa 0,0 mm W 265 9,7 km/h (2 Bft)
01.11.2012 13:00 11,6 C 70 % 993,3 hPa 0,0 mm W-NW 302 11,3 km/h (2 Bft)
01.11.2012 13:05 11,6 C 70 % 993,4 hPa 0,0 mm W 263 8,0 km/h (2 Bft)
01.11.2012 13:10 11,6 C 71 % 993,2 hPa 0,0 mm W-SW 247 14,5 km/h (3 Bft)
01.11.2012 13:15 11,5 C 71 % 993,3 hPa 0,0 mm W 275 19,3 km/h (3 Bft)
01.11.2012 13:20 11,6 C 72 % 993,3 hPa 0,0 mm W 269 12,9 km/h (3 Bft)
01.11.2012 13:25 11,6 C 71 % 993,3 hPa 0,0 mm W 269 16,1 km/h (3 Bft)
01.11.2012 13:30 11,5 C 72 % 993,4 hPa 0,0 mm W 259 9,7 km/h (2 Bft)
01.11.2012 13:35 11,5 C 71 % 993,3 hPa 0,0 mm W 259 11,3 km/h (2 Bft)
01.11.2012 13:40 11,4 C 73 % 993,3 hPa 0,0 mm W-SW 255 9,7 km/h (2 Bft)
01.11.2012 13:45 11,4 C 72 % 993,4 hPa 0,0 mm W-SW 257 9,7 km/h (2 Bft)
01.11.2012 13:50 11,4 C 73 % 993,5 hPa 0,0 mm W-SW 253 11,3 km/h (2 Bft)
01.11.2012 13:55 11,4 C 73 % 993,5 hPa 0,0 mm W 272 9,7 km/h (2 Bft)
01.11.2012 14:00 11,4 C 74 % 993,5 hPa 0,0 mm W 269 9,7 km/h (2 Bft)
01.11.2012 14:05 11,4 C 72 % 993,4 hPa 0,0 mm W 275 14,5 km/h (3 Bft)
01.11.2012 14:10 11,4 C 73 % 993,4 hPa 0,0 mm W 261 9,7 km/h (2 Bft)
01.11.2012 14:15 11,4 C 73 % 993,5 hPa 0,0 mm W 280 9,7 km/h (2 Bft)
01.11.2012 14:20 11,5 C 73 % 993,5 hPa 0,0 mm W 274 9,7 km/h (2 Bft)
01.11.2012 14:25 11,6 C 72 % 993,4 hPa 0,0 mm W 259 9,7 km/h (2 Bft)
01.11.2012 14:30 11,6 C 72 % 993,5 hPa 0,0 mm W-SW 257 6,4 km/h (2 Bft)
01.11.2012 14:35 11,6 C 73 % 993,4 hPa 0,0 mm W-NW 286 6,4 km/h (2 Bft)
01.11.2012 14:40 11,7 C 72 % 993,5 hPa 0,0 mm W 279 8,0 km/h (2 Bft)
01.11.2012 14:45 11,7 C 72 % 993,5 hPa 0,0 mm W 275 6,4 km/h (2 Bft)
01.11.2012 14:50 11,7 C 72 % 993,6 hPa 0,0 mm W-SW 256 6,4 km/h (2 Bft)
01.11.2012 14:55 11,6 C 72 % 993,6 hPa 0,0 mm W-SW 252 4,8 km/h (1 Bft)
01.11.2012 15:00 11,6 C 72 % 993,7 hPa 0,0 mm W 273 4,8 km/h (1 Bft)
01.11.2012 15:05 11,6 C 72 % 993,8 hPa 0,0 mm W 269 6,4 km/h (2 Bft)
01.11.2012 15:10 11,5 C 73 % 993,8 hPa 0,0 mm W 269 3,2 km/h (1 Bft)
01.11.2012 15:15 11,5 C 73 % 993,9 hPa 0,0 mm W 269 0,0 km/h (0 Bft)
01.11.2012 15:20 11,4 C 73 % 993,9 hPa 0,0 mm W 269 0,0 km/h (0 Bft)
01.11.2012 15:25 11,4 C 73 % 993,9 hPa 0,0 mm W 269 0,0 km/h (0 Bft)
01.11.2012 15:30 11,3 C 74 % 993,9 hPa 0,0 mm W 269 0,0 km/h (0 Bft)
01.11.2012 15:35 11,2 C 74 % 994,0 hPa 0,0 mm W 269 0,0 km/h (0 Bft)
01.11.2012 15:40 11,0 C 76 % 994,0 hPa 0,0 mm W 269 0,0 km/h (0 Bft)
01.11.2012 15:45 10,7 C 79 % 994,0 hPa 0,0 mm W 265 0,0 km/h (0 Bft)
01.11.2012 15:50 10,5 C 80 % 994,0 hPa 0,0 mm W-SW 250 0,0 km/h (0 Bft)
01.11.2012 15:55 10,3 C 81 % 994,0 hPa 0,0 mm W-SW 250 0,0 km/h (0 Bft)
01.11.2012 16:00 10,3 C 82 % 994,1 hPa 0,0 mm W-SW 250 0,0 km/h (0 Bft)
01.11.2012 16:05 10,2 C 81 % 994,1 hPa 0,0 mm W-SW 250 0,0 km/h (0 Bft)
01.11.2012 16:10 10,1 C 80 % 994,0 hPa 0,0 mm W-SW 250 0,0 km/h (0 Bft)
01.11.2012 16:15 10,0 C 80 % 994,0 hPa 0,0 mm W-SW 250 0,0 km/h (0 Bft)
01.11.2012 16:20 9,8 C 81 % 994,1 hPa 0,0 mm W-SW 250 0,0 km/h (0 Bft)
01.11.2012 16:25 9,7 C 82 % 994,2 hPa 0,0 mm W-SW 250 0,0 km/h (0 Bft)
01.11.2012 16:30 9,6 C 82 % 994,2 hPa 0,0 mm W-SW 250 0,0 km/h (0 Bft)
01.11.2012 16:35 9,5 C 82 % 994,3 hPa 0,0 mm W-SW 250 0,0 km/h (0 Bft)
01.11.2012 16:40 9,4 C 83 % 994,4 hPa 0,0 mm W-SW 250 0,0 km/h (0 Bft)
01.11.2012 16:45 9,3 C 83 % 994,4 hPa 0,0 mm W-SW 250 0,0 km/h (0 Bft)
01.11.2012 16:50 9,2 C 84 % 994,4 hPa 0,0 mm W-SW 250 0,0 km/h (0 Bft)
01.11.2012 16:55 9,1 C 85 % 994,5 hPa 0,0 mm W-SW 250 0,0 km/h (0 Bft)
01.11.2012 17:00 9,0 C 84 % 994,7 hPa 0,0 mm W-SW 250 0,0 km/h (0 Bft)
01.11.2012 17:05 8,9 C 85 % 994,6 hPa 0,0 mm W-SW 250 0,0 km/h (0 Bft)
01.11.2012 17:10 8,8 C 85 % 994,6 hPa 0,0 mm W-SW 250 0,0 km/h (0 Bft)
01.11.2012 17:15 8,7 C 85 % 994,8 hPa 0,0 mm W-SW 250 0,0 km/h (0 Bft)
01.11.2012 17:20 8,6 C 85 % 994,9 hPa 0,0 mm W-SW 249 0,0 km/h (0 Bft)
01.11.2012 17:25 8,4 C 86 % 994,9 hPa 0,0 mm W-SW 248 0,0 km/h (0 Bft)
01.11.2012 17:30 8,3 C 86 % 995,0 hPa 0,0 mm W-SW 248 0,0 km/h (0 Bft)
01.11.2012 17:35 8,3 C 87 % 995,0 hPa 0,0 mm W-SW 248 0,0 km/h (0 Bft)
01.11.2012 17:40 8,2 C 87 % 995,2 hPa 0,0 mm W-SW 249 1,6 km/h (1 Bft)
01.11.2012 17:45 8,1 C 87 % 995,2 hPa 0,0 mm W-SW 249 1,6 km/h (1 Bft)
01.11.2012 17:50 8,1 C 87 % 995,3 hPa 0,0 mm W-SW 249 0,0 km/h (0 Bft)
01.11.2012 17:55 7,9 C 88 % 995,3 hPa 0,0 mm W-SW 248 1,6 km/h (1 Bft)
01.11.2012 18:00 7,8 C 88 % 995,3 hPa 0,0 mm W-SW 248 3,2 km/h (1 Bft)
01.11.2012 18:05 7,7 C 88 % 995,4 hPa 0,0 mm W-SW 249 1,6 km/h (1 Bft)
01.11.2012 18:10 7,6 C 88 % 995,4 hPa 0,0 mm W-SW 255 3,2 km/h (1 Bft)
01.11.2012 18:15 7,6 C 88 % 995,5 hPa 0,0 mm W-SW 256 3,2 km/h (1 Bft)
01.11.2012 18:20 7,5 C 89 % 995,7 hPa 0,0 mm W-SW 256 1,6 km/h (1 Bft)
01.11.2012 18:25 7,4 C 89 % 995,7 hPa 0,0 mm W-SW 256 1,6 km/h (1 Bft)
01.11.2012 18:30 7,3 C 89 % 995,8 hPa 0,0 mm W-SW 256 3,2 km/h (1 Bft)
01.11.2012 18:35 7,2 C 88 % 995,8 hPa 0,0 mm W-SW 256 0,0 km/h (0 Bft)
01.11.2012 18:40 7,1 C 89 % 995,8 hPa 0,0 mm W-SW 256 3,2 km/h (1 Bft)
01.11.2012 18:45 6,8 C 88 % 995,9 hPa 0,0 mm W-SW 256 0,0 km/h (0 Bft)
01.11.2012 18:50 6,6 C 88 % 996,1 hPa 0,0 mm W-SW 256 1,6 km/h (1 Bft)
01.11.2012 18:55 6,4 C 88 % 996,1 hPa 0,0 mm W-SW 256 3,2 km/h (1 Bft)
01.11.2012 19:00 6,1 C 88 % 996,3 hPa 0,0 mm W-SW 256 0,0 km/h (0 Bft)
01.11.2012 19:05 5,8 C 89 % 996,5 hPa 0,0 mm W-SW 256 0,0 km/h (0 Bft)
01.11.2012 19:10 5,7 C 89 % 996,5 hPa 0,0 mm W-SW 256 0,0 km/h (0 Bft)
01.11.2012 19:15 5,4 C 89 % 996,6 hPa 0,0 mm W-SW 256 0,0 km/h (0 Bft)
01.11.2012 19:20 5,2 C 89 % 996,7 hPa 0,0 mm W-SW 256 1,6 km/h (1 Bft)
01.11.2012 19:25 5,1 C 90 % 996,8 hPa 0,0 mm W-SW 256 3,2 km/h (1 Bft)
01.11.2012 19:30 5,1 C 90 % 996,9 hPa 0,0 mm W-SW 256 1,6 km/h (1 Bft)
01.11.2012 19:35 4,9 C 90 % 997,0 hPa 0,0 mm W-SW 256 0,0 km/h (0 Bft)
01.11.2012 19:40 4,6 C 90 % 997,0 hPa 0,0 mm W-SW 256 1,6 km/h (1 Bft)
01.11.2012 19:45 4,4 C 90 % 997,0 hPa 0,0 mm W-SW 256 3,2 km/h (1 Bft)
01.11.2012 19:50 4,3 C 91 % 997,0 hPa 0,0 mm W-SW 256 4,8 km/h (1 Bft)
01.11.2012 19:55 4,2 C 91 % 997,1 hPa 0,0 mm W-SW 257 1,6 km/h (1 Bft)
01.11.2012 20:00 4,0 C 91 % 997,1 hPa 0,0 mm W-SW 257 0,0 km/h (0 Bft)
01.11.2012 20:05 3,9 C 91 % 997,2 hPa 0,0 mm W-SW 257 0,0 km/h (0 Bft)
01.11.2012 20:10 3,8 C 91 % 997,2 hPa 0,0 mm W-SW 257 0,0 km/h (0 Bft)
01.11.2012 20:15 3,7 C 91 % 997,2 hPa 0,0 mm W-SW 257 1,6 km/h (1 Bft)
01.11.2012 20:20 3,5 C 91 % 997,2 hPa 0,0 mm W-SW 257 0,0 km/h (0 Bft)
01.11.2012 20:25 3,4 C 91 % 997,3 hPa 0,0 mm W-SW 257 3,2 km/h (1 Bft)
01.11.2012 20:30 3,4 C 92 % 997,4 hPa 0,0 mm W-SW 257 3,2 km/h (1 Bft)
01.11.2012 20:35 3,3 C 92 % 997,4 hPa 0,0 mm W-SW 257 0,0 km/h (0 Bft)
01.11.2012 20:40 3,2 C 92 % 997,6 hPa 0,0 mm W-SW 257 0,0 km/h (0 Bft)
01.11.2012 20:45 3,1 C 92 % 997,6 hPa 0,0 mm W-SW 257 0,0 km/h (0 Bft)
01.11.2012 20:50 3,0 C 92 % 997,7 hPa 0,0 mm W-SW 257 0,0 km/h (0 Bft)
01.11.2012 20:55 2,9 C 92 % 997,7 hPa 0,0 mm W-SW 257 3,2 km/h (1 Bft)
01.11.2012 21:00 2,9 C 92 % 997,7 hPa 0,0 mm W-SW 257 1,6 km/h (1 Bft)
01.11.2012 21:05 2,8 C 92 % 997,7 hPa 0,0 mm W-SW 257 1,6 km/h (1 Bft)
01.11.2012 21:10 2,8 C 92 % 997,8 hPa 0,0 mm W-SW 257 1,6 km/h (1 Bft)
01.11.2012 21:15 2,7 C 93 % 997,8 hPa 0,0 mm W-SW 257 0,0 km/h (0 Bft)
01.11.2012 21:20 2,6 C 93 % 997,8 hPa 0,0 mm W-SW 257 0,0 km/h (0 Bft)
01.11.2012 21:25 2,5 C 92 % 997,9 hPa 0,0 mm W-SW 247 1,6 km/h (1 Bft)
01.11.2012 21:30 2,4 C 93 % 997,8 hPa 0,0 mm W-SW 247 1,6 km/h (1 Bft)
01.11.2012 21:35 2,4 C 93 % 997,8 hPa 0,0 mm N 0 0,0 km/h (0 Bft)
01.11.2012 21:40 2,3 C 93 % 997,8 hPa 0,0 mm W-SW 247 1,6 km/h (1 Bft)
01.11.2012 21:45 2,3 C 93 % 997,9 hPa 0,0 mm W-SW 247 4,8 km/h (1 Bft)
01.11.2012 21:50 2,4 C 93 % 998,0 hPa 0,0 mm W 270 1,6 km/h (1 Bft)
01.11.2012 21:55 2,4 C 94 % 998,0 hPa 0,0 mm N 0 0,0 km/h (0 Bft)
01.11.2012 22:00 2,3 C 94 % 998,0 hPa 0,0 mm W 270 1,6 km/h (1 Bft)
01.11.2012 22:05 2,4 C 94 % 998,0 hPa 0,0 mm W 270 1,6 km/h (1 Bft)
01.11.2012 22:10 2,6 C 94 % 998,1 hPa 0,0 mm W 259 0,0 km/h (0 Bft)
01.11.2012 22:15 2,6 C 94 % 998,0 hPa 0,0 mm W 259 1,6 km/h (1 Bft)
01.11.2012 22:20 2,7 C 94 % 998,1 hPa 0,0 mm W 259 3,2 km/h (1 Bft)
01.11.2012 22:25 2,8 C 95 % 998,1 hPa 0,0 mm W 259 3,2 km/h (1 Bft)
01.11.2012 22:30 3,0 C 95 % 998,1 hPa 0,0 mm W 259 0,0 km/h (0 Bft)
01.11.2012 22:35 3,1 C 95 % 998,1 hPa 0,0 mm W 260 3,2 km/h (1 Bft)
01.11.2012 22:40 3,2 C 95 % 998,1 hPa 0,0 mm W 260 3,2 km/h (1 Bft)
01.11.2012 22:45 3,3 C 95 % 998,2 hPa 0,0 mm W 260 4,8 km/h (1 Bft)
01.11.2012 22:50 3,4 C 95 % 998,1 hPa 0,0 mm W 260 0,0 km/h (0 Bft)
01.11.2012 22:55 3,4 C 95 % 998,2 hPa 0,0 mm W 260 1,6 km/h (1 Bft)
01.11.2012 23:00 3,4 C 95 % 998,3 hPa 0,0 mm W 260 1,6 km/h (1 Bft)
01.11.2012 23:05 3,5 C 95 % 998,3 hPa 0,0 mm W 260 4,8 km/h (1 Bft)
01.11.2012 23:10 3,6 C 95 % 998,3 hPa 0,0 mm W 260 1,6 km/h (1 Bft)
01.11.2012 23:15 3,7 C 95 % 998,5 hPa 0,0 mm W 260 4,8 km/h (1 Bft)
01.11.2012 23:20 3,8 C 95 % 998,4 hPa 0,0 mm W 260 3,2 km/h (1 Bft)
01.11.2012 23:25 3,9 C 95 % 998,6 hPa 0,0 mm W 260 1,6 km/h (1 Bft)
01.11.2012 23:30 3,9 C 95 % 998,6 hPa 0,0 mm W 260 0,0 km/h (0 Bft)
01.11.2012 23:35 4,0 C 95 % 998,6 hPa 0,0 mm W 260 0,0 km/h (0 Bft)
01.11.2012 23:40 4,1 C 95 % 998,5 hPa 0,0 mm W 260 0,0 km/h (0 Bft)
01.11.2012 23:45 4,1 C 95 % 998,6 hPa 0,0 mm W-SW 252 1,6 km/h (1 Bft)
01.11.2012 23:50 4,3 C 95 % 998,6 hPa 0,0 mm W-SW 252 1,6 km/h (1 Bft)
01.11.2012 23:55 4,3 C 95 % 998,7 hPa 0,0 mm W-SW 252 1,6 km/h (1 Bft)
_ Min-Zeit 21:40 12:05 06:30 - - - 15:15
Minimum _ 2,3 C 66 % 991,0 hPa - - - 0,0 km/h (0 Bft)
_ Max-Zeit 12:10 22:25 23:55 00:00 - - 11:45
Maximum _ 12,1 C 95 % 998,7 hPa 0,0 mm - - 20,9 km/h
W (4 Bft)
Durchschnitt _ 6,8 C 86 % 994,3 hPa #0,0 mm W-SW - 7,2 km/h (2 Bft)